Location: Blandford
(50.8667°N, 2.1667°W)
Time: 09:19:34
(UTC+00:00)

Cosmos 2218 Rocket - Pass Details

Date: 09 April 2020
Orbit: 957 x 1005 km, 82.9° (Epoch: 24 May)

Event Time Altitude Azimuth Distance (km) Brightness Sun altitude
Rises 20:53:38 0° 349° (N) 3,666 7.8 -17.5°
Reaches altitude 10° 20:56:08 10° 348° (NNW) 2,721 7.1 -17.8°
Maximum altitude 21:02:22 81° 263° (W) 995 4.1 -18.6°
Enters shadow 21:07:08 18° 178° (S) 2,180 5.4 -19.2°
